Regional Weather Roundup
Issued by NWS

Home | Current Version | Previous Version | Graphics & Text | Print | Product List | Glossary On
Versions: 1 2 3 4 5 6 7 8 9 10 11 12 13 14 15 16 17 18 19 20 21 22 23 24 25 26 27 28 29 30 31 32 33 34 35 36 37 38 39 40 41 42 43 44 45 46 47 48 49 50
000
ASUS43 KOAX 260110
RWRNE

WEATHER ROUNDUP FOR NEBRASKA
NATIONAL WEATHER SERVICE OMAHA NE
800 PM CDT WED MAY 25 2016

NOTES: SATELLITE DATA IS BEING USED TO AUGMENT CLOUD COVER ABOVE
       12000 FEET.
       "FAIR" INDICATES FEW OR NO CLOUDS BELOW 12,000 FEET WITH NO
       SIGNIFICANT WEATHER AND/OR OBSTRUCTIONS TO VISIBILITY.

  * THESE STATIONS DO NOT REPORT WEATHER SUCH AS RAIN...SNOW OR FOG.

NEZ001>004-019>022-054>056-260200-
NEBRASKA PANHANDLE

CITY           SKY/WX    TMP DP  RH WIND       PRES   REMARKS
SCOTTSBLUFF    CLOUDY    70  37  29 S7        29.91R
ALLIANCE       CLOUDY    65  44  46 NE9       29.91R
CHADRON        SUNNY     68  41  37 W3        29.90R
KIMBALL        CLOUDY    60  38  45 N12       29.97R
SIDNEY         SUNNY     63  44  50 NE6       29.94S
$$

NEZ057>060-069>072-079>082-260200-
SOUTHWEST NEBRASKA

CITY           SKY/WX    TMP DP  RH WIND       PRES   REMARKS
NORTH PLATTE   TSTM      63  47  55 W38G62    29.95R SQUALL
IMPERIAL       CLOUDY    56  49  77 N14       29.94F
LEXINGTON      CLOUDY    72  60  64 E3        29.85R
MCCOOK         CLEAR     74  57  55 SE5       29.85S
OGALLALA       CLOUDY    63  48  59 N9        29.91R
$$

NEZ005>010-023>029-035>040-094-260200-
NORTH CENTRAL NEBRASKA

CITY           SKY/WX    TMP DP  RH WIND       PRES   REMARKS
VALENTINE      MOSUNNY   65  44  46 NW20G37   29.85S
AINSWORTH      CLOUDY    69  46  44 NW7       29.85F
BROKEN BOW     CLOUDY    71  49  45 N12       29.86R
O`NEILL        CLOUDY    75  60  58 W16G32    29.81R
ORD            CLOUDY    76  60  57 S5        29.82R
THEDFORD       CLOUDY    72  43  35 W15       29.89R
$$

NEZ041-046>049-061>064-073>077-083>087-260200-
SOUTH CENTRAL NEBRASKA

CITY           SKY/WX    TMP DP  RH WIND       PRES   REMARKS
GRAND ISLAND   MOCLDY    73  64  73 CALM      29.83S
AURORA         PTCLDY    74  64  70 S3        29.83R
HASTINGS       PTCLDY    74  62  66 S3        29.83F
HEBRON         CLEAR     76  67  73 S3        29.82S
HOLDREGE       PTCLDY    73  62  67 SE6       29.83F
KEARNEY *      PTCLDY    73  63  68 S6        29.84F
YORK           PTCLDY    73  64  73 W3        29.83R
$$

NEZ011>018-030>034-042>045-260200-
NORTHEAST NEBRASKA

CITY           SKY/WX    TMP DP  RH WIND       PRES   REMARKS
NORFOLK        PTCLDY    78  60  53 CALM      29.79F
ALBION         CLEAR     76  60  58 SW3       29.81F
BLAIR          CLOUDY    74  67  78 S7        29.83S
FREMONT        CLOUDY    74  66  74 SE7       29.83R
TEKAMAH        MOCLDY    77  65  66 S12       29.81S
WAYNE          PTCLDY    78  60  53 SW6       29.79F
$$

NEZ050>053-065>068-078-088>093-260200-
SOUTHEAST NEBRASKA

CITY           SKY/WX    TMP DP  RH WIND       PRES   REMARKS
LINCOLN        CLEAR     76  67  73 S7        29.82F
OMAHA EPPLEY   MOCLDY    76  67  73 SE7       29.82S
BEATRICE       CLOUDY    75  69  79 SE5       29.83S
FALLS CITY     CLOUDY    78  68  71 SE7       29.82F
NEBRASKA CITY  PTCLDY    75  69  79 S6        29.84S
PLATTSMOUTH    CLOUDY    77  69  78 CALM      29.84S
$$

NEZ044-045-051>053-067-260200-
OMAHA AREA

CITY           SKY/WX    TMP DP  RH WIND       PRES   REMARKS
OMAHA EPPLEY   MOCLDY    76  67  73 SE7       29.82S
BLAIR          CLOUDY    74  67  78 S7        29.83S
FREMONT        CLOUDY    74  66  74 SE7       29.83R
MILLARD        CLOUDY    76  67  71 S5        29.83R
OFFUTT AFB     MOCLDY    75  69  79 SE5       29.82S
PLATTSMOUTH    CLOUDY    77  69  78 CALM      29.84S
WAHOO          MOCLDY    75  67  76 S5        29.82S
$$




USA.gov is the U.S. government's official web portal to all federal, state and local government web resources and services.